User: anonymous   Login
Location: Unspecified
(0.0000°N, 0.0000°E)
Time: 21:03:35
(UTC+00:00)
Language:

STARLINK-11327 [DTC] - Orbit

View from above orbital plane
View from above orbital plane
View from above satellite
View from above satellite

Ground track
Ground track

The orbit is defined by the following mean orbital elements,

1 61695U          26145.33892448 +.00000000 +00000-0 +76052-5 0 00004
2 61695  53.1604   8.3023 0001085  95.7272 264.3870 15.69703482    05
Epoch (UTC): 25 May 2026 08:08:03
Eccentricity: 0.0001085
inclination: 53.1604°
perigee height: 359 km
apogee height: 360 km
right ascension of ascending node: 8.3023°
argument of perigee: 95.7272°
revolutions per day: 15.69703482
mean anomaly at epoch: 264.3870°

The dashed part of the orbit path shows where the satellite is in the earth's shadow,  

DLR